FW2479 Weather Reports


time (UTC)temp
C
wind
direction
speed
KPH
gust
KPH
rain 1hr
cm
rain 24hr
cm
rain mn
cm
humidity
%
barometer
mb
20260503025642 -17 0.0 0.0 0.00 0.08 0.08 1010.2
20260503024921 -17 334 0.0 0.0 0.00 0.08 0.08 1010.2
20260503024642 -17 334 0.0 0.0 0.00 0.08 0.08 1010.3
20260503023920 8 334 0.0 0.0 0.00 0.08 0.08 92 1010.2
20260503023416 8 334 0.0 0.0 0.00 0.08 0.08 92 1010.2
20260503023139 8 334 0.0 0.0 0.00 0.08 0.08 92 1010.3
20260503022639 8 333 0.0 0.0 0.00 0.08 0.08 92 1010.3
20260503021917 8 333 0.0 0.0 0.00 0.08 0.08 92 1010.1
20260503021633 8 333 0.0 0.0 0.00 0.08 0.08 91 1010.1
20260503020921 8 333 0.0 0.0 0.00 0.08 0.08 91 1010.0
20260503020416 8 333 0.0 0.0 0.00 0.08 0.08 91 1010.2
20260503015917 8 333 0.0 0.0 0.00 0.08 0.08 91 1010.1
20260503015414 8 333 0.0 0.0 0.00 0.08 0.08 91 1010.2
20260503014916 8 333 0.0 0.0 0.00 0.08 0.08 91 1010.3
20260503014414 8 333 0.0 0.0 0.00 0.08 0.08 91 1010.3
20260503013917 8 333 0.0 0.0 0.00 0.08 0.08 91 1010.4
20260503013413 8 333 0.0 0.0 0.00 0.08 0.08 91 1010.4
20260503012914 8 333 0.0 0.0 0.00 0.08 0.08 91 1010.4
20260503012413 8 333 0.0 0.0 0.00 0.08 0.08 91 1010.5
20260503011914 8 333 0.0 0.0 0.00 0.08 0.08 91 1010.4
20260503011413 8 333 0.0 0.0 0.00 0.08 0.08 91 1010.4
20260503010914 8 333 0.0 0.0 0.00 0.08 0.08 91 1010.4
20260503010413 8 333 0.0 0.0 0.00 0.08 0.08 91 1010.3
20260503005913 8 333 0.0 0.0 0.00 0.08 0.08 91 1010.3
20260503005417 8 333 0.0 0.0 0.00 0.08 0.08 91 1010.2
20260503004913 8 333 0.0 0.0 0.00 0.08 0.08 90 1010.2
20260503004638 8 333 0.0 0.0 0.00 0.08 0.08 91 1010.0
20260503003912 8 333 0.0 0.0 0.00 0.08 0.08 90 1010.0
20260503003410 8 333 0.0 0.0 0.00 0.08 0.08 90 1010.1
20260503002912 8 333 0.0 0.0 0.00 0.08 0.08 90 1010.0
20260503002410 9 333 0.0 0.0 0.00 0.08 0.08 90 1010.0
20260503002139 9 333 0.0 0.0 0.00 0.08 0.08 90 1010.0
20260503001409 9 333 0.0 0.0 0.00 0.08 0.08 90 1010.1
20260503000910 9 333 0.0 0.0 0.00 0.08 0.08 90 1010.1
20260503000408 9 333 0.0 0.0 0.00 0.08 0.08 90 1010.0
20260502235908 9 333 0.0 0.0 0.00 0.08 0.08 90 1010.0
20260502235407 9 333 0.0 0.0 0.00 0.08 0.08 90 1009.9
20260502234909 9 333 0.0 0.0 0.00 0.08 0.08 90 1010.0
20260502234408 9 333 0.0 0.0 0.00 0.08 0.08 90 1010.0
20260502233907 9 333 0.0 0.0 0.00 0.08 0.08 90 1010.1
20260502233406 9 333 0.0 0.0 0.00 0.08 0.08 90 1010.0
20260502232907 9 333 0.0 0.0 0.00 0.08 0.08 90 1010.0
20260502232406 9 333 0.0 0.0 0.00 0.08 0.08 89 1010.0
20260502231908 9 333 0.0 0.0 0.00 0.08 0.08 89 1009.9
20260502231625 9 333 0.0 0.0 0.00 0.08 0.08 89 1010.0
20260502231129 9 333 0.0 0.0 0.00 0.08 0.08 89 1010.0
20260502230403 9 333 0.0 0.0 0.03 0.08 0.08 89 1010.0
20260502225908 10 333 0.0 0.0 0.03 0.05 0.08 89 1010.0
20260502225404 10 333 0.0 0.0 0.03 0.05 0.08 89 1009.9
20260502224904 10 333 0.0 0.0 0.03 0.05 0.08 89 1009.9
20260502224403 9 333 0.0 0.0 0.03 0.05 0.08 88 1009.8
20260502223904 10 333 0.0 0.0 0.03 0.05 0.08 87 1009.7
20260502223624 10 333 0.0 0.0 0.03 0.05 0.08 87 1009.7
20260502222902 -17 0.0 0.0 0.03 0.05 0.08 1009.8
20260502222403 10 333 0.0 0.0 0.03 0.05 0.08 87 1009.9
20260502221910 10 333 0.0 0.0 0.03 0.05 0.08 87 1010.0
20260502221408 10 333 0.0 0.0 0.03 0.05 0.08 87 1010.0
20260502220903 10 333 0.0 0.0 0.03 0.05 0.08 86 1010.0
20260502220403 10 333 0.0 0.0 0.00 0.05 0.05 86 1010.2
20260502215908 10 333 0.0 0.0 0.00 0.05 0.05 85 1010.1
20260502215403 10 296 0.0 0.0 0.00 0.05 0.05 85 1010.1
20260502214904 10 296 0.0 0.0 0.00 0.05 0.05 84 1010.1
20260502214622 10 296 0.0 3.2 0.00 0.05 0.05 83 1010.0
20260502213903 10 295 0.0 3.2 0.00 0.05 0.05 82 1010.1
20260502213628 10 309 0.0 1.6 0.00 0.05 0.05 81 1010.0
20260502212904 11 293 0.0 1.6 0.00 0.05 0.05 80 1010.1
20260502212403 11 286 0.0 0.0 0.00 0.05 0.05 80 1010.1
20260502211904 11 305 0.0 0.0 0.00 0.05 0.05 80 1010.0
20260502211403 11 305 0.0 0.0 0.00 0.05 0.05 79 1010.0
20260502210904 11 131 0.0 0.0 0.00 0.05 0.05 78 1009.8
20260502210403 12 128 0.0 0.0 0.00 0.05 0.05 78 1009.8
20260502205903 -17 0.0 0.0 0.00 0.05 0.05 1009.8
20260502205405 -17 0.0 0.0 0.00 0.05 0.05 1009.7
20260502204908 -17 231 0.0 0.0 0.00 0.05 0.05 1009.7
20260502204404 12 231 0.0 0.0 0.00 0.05 0.05 76 1009.7
20260502203905 12 230 0.0 0.0 0.00 0.05 0.05 76 1009.7
20260502203405 12 206 0.0 0.0 0.00 0.05 0.05 77 1009.8
20260502202904 12 65 0.0 0.0 0.00 0.05 0.05 76 1009.7
20260502202403 12 92 0.0 0.0 0.00 0.05 0.05 76 1009.8
20260502201904 12 149 0.0 0.0 0.00 0.05 0.05 75 1009.9
20260502201403 12 141 0.0 1.6 0.00 0.05 0.05 74 1009.8
20260502201347 12 210 0.0 4.8 0.00 0.05 0.05 73 1010.0
20260502200405 12 258 0.0 4.8 0.00 0.05 0.05 74 1009.9
20260502195904 12 221 0.0 0.0 0.00 0.05 0.05 74 1009.7
20260502195403 12 118 0.0 0.0 0.00 0.05 0.05 73 1009.9
20260502194903 12 173 0.0 0.0 0.00 0.05 0.05 73 1010.0
20260502194404 12 173 0.0 0.0 0.00 0.05 0.05 73 1010.1
20260502193903 12 165 0.0 0.0 0.00 0.05 0.05 74 1010.1
20260502193403 12 140 0.0 0.0 0.00 0.05 0.05 74 1010.3
20260502192904 12 252 0.0 0.0 0.00 0.05 0.05 76 1010.3
20260502192404 12 252 0.0 0.0 0.00 0.05 0.05 75 1010.4
20260502191904 12 94 0.0 0.0 0.00 0.05 0.05 78 1010.5
20260502191404 12 94 0.0 3.2 0.00 0.05 0.05 78 1010.5
20260502190903 11 326 0.0 3.2 0.00 0.05 0.05 76 1010.6
20260502190404 11 302 0.0 3.2 0.00 0.05 0.05 78 1010.6
20260502185903 11 216 0.0 1.6 0.00 0.05 0.05 78 1010.7
20260502185629 11 219 0.0 1.6 0.00 0.05 0.05 80 1010.7
20260502185125 11 209 0.0 1.6 0.00 0.05 0.05 82 1010.6
20260502184403 11 228 0.0 1.6 0.00 0.05 0.05 85 1010.5
20260502183903 10 212 0.0 0.0 0.00 0.05 0.05 86 1010.6
20260502183405 10 212 0.0 3.2 0.00 0.05 0.05 86 1010.7
20260502182905 10 202 0.0 3.2 0.03 0.05 0.05 87 1010.6
20260502182403 10 347 0.0 0.0 0.03 0.05 0.05 87 1010.6
20260502182123 10 212 0.0 1.6 0.03 0.05 0.05 87 1010.7
20260502181403 10 212 0.0 1.6 0.05 0.05 0.05 87 1010.8
20260502180904 10 176 0.0 1.6 0.05 0.05 0.05 87 1010.8
20260502180403 10 147 0.0 1.6 0.05 0.05 0.05 87 1010.7
20260502163905 11 207 0.0 1.6 0.00 0.00 0.00 73 1011.4
20260502163404 11 207 0.0 0.0 0.00 0.00 0.00 74 1011.2
20260502162903 11 207 0.0 0.0 0.00 0.00 0.00 66 1011.2
20260502162403 12 206 0.0 9.7 0.00 0.00 0.00 66 1011.2
20260502162127 12 185 0.0 9.7 0.00 0.00 0.00 65 1011.2
20260502161402 12 121 0.0 1.6 0.00 0.00 0.00 70 1011.1
20260502160903 12 305 0.0 0.0 0.00 0.00 0.00 73 1011.1
20260502160404 -17 0.0 0.0 0.00 0.00 0.00 1011.2
20260502152327 -17 0.0 0.0 0.00 0.00 0.00 1011.5
20260502151333 -17 0.0 0.0 0.00 0.00 0.00 1011.7
20260502150834 -17 0.0 0.0 0.00 0.00 0.00 1012.0
20260502150332 -17 0.0 0.0 0.00 0.00 0.00 1011.6
20260502130305 9 336 0.0 1.6 0.00 0.00 0.00 85 1012.2
20260502123524 10 262 0.0 1.6 0.00 0.00 0.00 81 1012.8
20260502122802 10 305 0.0 1.6 0.00 0.00 0.00 81 1012.7
20260502122305 10 305 0.0 1.6 0.00 0.00 0.00 81 1012.5
20260502121803 10 300 0.0 1.6 0.00 0.00 0.00 81 1012.5
20260502121301 10 299 0.0 1.6 0.00 0.00 0.00 81 1012.3
20260502120803 10 269 0.0 0.0 0.00 0.00 0.00 81 1012.2
20260502120524 10 269 0.0 0.0 0.00 0.00 0.00 81 1011.9
20260502115801 10 269 0.0 0.0 0.00 0.00 0.00 81 1012.1
20260502115300 10 266 0.0 1.6 0.00 0.00 0.00 81 1011.9
20260502114801 9 266 0.0 6.4 0.00 0.00 0.00 81 1011.7
20260502114522 9 282 0.0 6.4 0.00 0.00 0.00 81 1011.7
20260502113801 9 285 0.0 0.0 0.00 0.00 0.00 82 1011.8
20260502113259 8 285 0.0 0.0 0.00 0.00 0.00 82 1011.5
20260502112800 8 283 0.0 0.0 0.00 0.00 0.00 82 1011.7
20260502112259 8 283 0.0 0.0 0.00 0.00 0.00 81 1011.6
20260502111802 8 283 0.0 0.0 0.00 0.00 0.00 81 1011.7
20260502111300 8 286 0.0 0.0 0.00 0.00 0.00 82 1011.6
20260502110800 8 286 0.0 0.0 0.00 0.00 0.00 82 1011.5
20260502110259 8 286 0.0 0.0 0.00 0.00 0.00 82 1011.8
20260502105801 8 286 0.0 0.0 0.00 0.00 0.00 82 1011.8
20260502105259 8 286 0.0 0.0 0.00 0.00 0.00 82 1011.5
20260502105026 -17 0.0 0.0 0.00 0.00 0.00 1011.6
20260502104256 8 286 0.0 0.0 0.00 0.00 0.00 83 1011.5
20260502103757 8 286 0.0 0.0 0.00 0.00 0.00 83 1011.4
20260502103255 8 289 0.0 0.0 0.00 0.00 0.00 83 1011.4
20260502102755 8 295 0.0 0.0 0.00 0.00 0.00 83 1011.4
20260502102254 8 323 0.0 0.0 0.00 0.00 0.00 83 1011.6
20260502101757 8 323 0.0 0.0 0.00 0.00 0.00 83 1011.2
20260502101255 8 323 0.0 0.0 0.00 0.00 0.00 83 1011.1
20260502100756 8 323 0.0 0.0 0.00 0.00 0.00 83 1011.2
20260502100515 8 323 0.0 0.0 0.00 0.00 0.00 83 1011.1
20260502091253 8 323 0.0 0.0 0.00 0.00 0.00 83 1011.1
20260502090755 8 323 0.0 0.0 0.00 0.00 0.00 82 1010.9
20260502090253 8 323 0.0 0.0 0.00 0.00 0.00 83 1011.0
20260502071246 9 327 0.0 0.0 0.00 0.00 0.00 74 1011.3
20260502071005 9 327 0.0 0.0 0.00 0.00 0.00 74 1011.2
20260502070246 9 327 0.0 0.0 0.00 0.00 0.00 73 1011.1
20260502065747 10 327 0.0 0.0 0.00 0.00 0.00 73 1011.2
20260502065245 10 329 0.0 0.0 0.00 0.00 0.00 73 1011.2
20260502064745 10 329 0.0 0.0 0.00 0.00 0.00 73 1011.4
20260502064247 10 329 0.0 0.0 0.00 0.00 0.00 72 1011.4
20260502063746 10 330 0.0 3.2 0.00 0.00 0.00 72 1011.4
20260502063245 10 319 0.0 3.2 0.00 0.00 0.00 72 1011.4
20260502062747 10 250 0.0 0.0 0.00 0.00 0.00 72 1011.4
20260502062244 9 234 0.0 0.0 0.00 0.00 0.00 72 1011.4
20260502061745 10 234 0.0 0.0 0.00 0.00 0.00 72 1011.4
20260502061244 10 234 0.0 1.6 0.00 0.00 0.00 72 1011.3
20260502060746 10 234 0.0 1.6 0.00 0.00 0.00 72 1011.3
20260502060243 10 234 0.0 0.0 0.00 0.00 0.00 71 1011.3
20260502060000 10 234 0.0 0.0 0.00 0.00 0.00 71 1011.4
20260502055241 10 234 0.0 0.0 0.00 0.00 0.00 71 1011.3
20260502054741 10 234 0.0 0.0 0.00 0.00 0.00 70 1011.3
20260502054242 10 234 0.0 0.0 0.00 0.00 0.00 71 1011.4
20260502053740 10 234 0.0 0.0 0.00 0.00 0.00 70 1011.4
20260502053727 10 234 0.0 1.6 0.00 0.00 0.00 70 1011.5
20260502053216 10 234 0.0 1.6 0.00 0.00 0.00 69 1011.5
20260502052239 10 235 0.0 0.0 0.00 0.00 0.00 69 1011.4
20260502051739 10 235 0.0 0.0 0.00 0.00 0.00 68 1011.4
20260502051238 10 235 0.0 0.0 0.00 0.00 0.00 68 1011.4
20260502050956 10 237 0.0 0.0 0.00 0.00 0.00 68 1011.5
20260502050455 10 235 0.0 0.0 0.00 0.00 0.00 68 1011.6
20260502045956 10 237 0.0 0.0 0.00 0.00 0.00 67 1011.4
20260502045238 10 234 0.0 0.0 0.00 0.00 0.00 67 1011.4
20260502045224 10 234 0.0 0.0 0.00 0.00 0.00 67 1011.4
20260502044239 10 234 0.0 0.0 0.00 0.00 0.00 67 1011.5
20260502043737 10 234 0.0 0.0 0.00 0.00 0.00 67 1011.5
20260502043236 10 234 0.0 0.0 0.00 0.00 0.00 66 1011.6
20260502042735 10 234 0.0 0.0 0.00 0.00 0.00 66 1011.7
20260502042237 10 234 0.0 0.0 0.00 0.00 0.00 66 1011.7
20260502041736 10 234 0.0 0.0 0.00 0.00 0.00 65 1011.6
20260502041235 10 234 0.0 0.0 0.00 0.00 0.00 64 1011.6
20260502040736 10 234 0.0 0.0 0.00 0.00 0.00 64 1011.7
20260502040234 10 234 0.0 0.0 0.00 0.00 0.00 64 1011.6
20260502035735 10 234 0.0 0.0 0.00 0.00 0.00 64 1011.6
20260502035234 10 234 0.0 0.0 0.00 0.00 0.00 64 1011.4
20260502034735 10 234 0.0 0.0 0.00 0.00 0.00 63 1011.5
20260502034458 10 234 0.0 0.0 0.00 0.00 0.00 63 1011.6
20260502033734 10 234 0.0 0.0 0.00 0.00 0.00 63 1011.6
20260502033234 10 234 0.0 0.0 0.00 0.00 0.00 63 1011.7
20260502032737 10 234 0.0 0.0 0.00 0.00 0.00 62 1011.6
20260502032451 10 234 0.0 0.0 0.00 0.00 0.00 62 1011.7
20260502031733 10 234 0.0 0.0 0.00 0.00 0.00 61 1011.7
20260502031234 10 234 0.0 0.0 0.00 0.00 0.00 61 1011.6
20260502030735 10 234 0.0 0.0 0.00 0.00 0.00 59 1011.5
20260502030235 10 234 0.0 0.0 0.00 0.00 0.00 59 1011.5
20260502025733 10 234 0.0 0.0 0.00 0.00 0.00 58 1011.5